Regional Weather Roundup
Issued by NWS Newport/Morehead, NC

Current Version | Previous Version | Text Only | Print | Product List | Glossary Off
Versions: 1 2 3 4 5 6 7 8 9 10 11 12 13 14 15 16 17 18 19 20 21 22 23 24 25 26 27 28 29 30 31 32 33 34 35 36 37 38 39 40 41 42 43 44 45 46 47 48 49 50
000 ASUS42 KMHX 190722 RWRMHX WEATHER ROUNDUP FOR EASTERN NORTH CAROLINA NATIONAL WEATHER SERVICE NEWPORT/MOREHEAD CITY NC 300 AM EDT FRI SEP 19 2014 NOTE: "FAIR" INDICATES FEW OR NO CLOUDS BELOW 12,000 FEET WITH NO SIGNIFICANT WEATHER AND/OR OBSTRUCTIONS TO VISIBILITY NCZ015>017-031-032-045>047-102-103-190800- NORTH COAST CITY SKY/WX TMP DP RH WIND PRES REMARKS EDENTON CLEAR 60 58 95 CALM 30.09S ELIZABETH CITY PTCLDY 60 58 92 CALM 30.09S KITTY HAWK SUNNY 70 57 62 E5 30.07S MANTEO CLEAR 68 58 68 E7 30.08S $$ NCZ045>047-081-094-103-104-190800- CENTRAL COAST CITY SKY/WX TMP DP RH WIND PRES REMARKS FRISCO CLEAR 68 62 81 NE5 30.07R SWANQUARTER N/A 63 N/A N/A N3 30.03S $$ NCZ095-097-098-100-101-190800- SOUTHERN COAST CITY SKY/WX TMP DP RH WIND PRES REMARKS BEAUFORT MOCLDY 67 60 78 NE6 30.06S CEDAR ISLAND N/A 73 N/A N/A NE9G18 30.12R JACKSONVILLE MOCLDY 65 60 84 N6 30.06R NEWPORT NOT AVBL PINEY ISLAND MOSUNNY 74 61 63 E10 30.06S WILMINGTON PTCLDY 66 62 87 NE8 30.03F $$ NCZ011>013-027>030-043-044-078>080-089-090>093-098-190800- COASTAL PLAIN CITY SKY/WX TMP DP RH WIND PRES REMARKS AHOSKIE MOCLDY 59 57 94 CALM 30.10S CLINTON CLOUDY 65 61 89 CALM 30.06F ELIZABETHTOWN CLOUDY 64 60 85 CALM 30.05S GOLDSBORO MOCLDY 63 62 98 CALM 30.06F GREENVILLE PTCLDY 63 59 88 CALM 30.09F HAVELOCK MOCLDY 63 61 93 CALM 30.08S KENANSVILLE CLOUDY 61 61 100 CALM 30.07F KINSTON MOCLDY 61 60 96 N3 30.09S NEW BERN MOCLDY 67 60 78 NE7 30.08S RICHLANDS CLOUDY 61 55 82 NE6 30.06F ROANOKE RAPIDS NOT AVBL ROCKY MOUNT CLEAR 59 56 89 CALM 30.09S WASHINGTON PTCLDY 59 56 91 CALM 30.09S WHITEVILLE MOCLDY 67 62 85 NE5 30.03S $$ AMZ130-135-150-152-154-156-158-170-250-252-270-ANZ085-086-088-633-658-670-190800- MARINE OBSERVATIONS STATION/POSITION TIME TEMP WIND PRES WAVE SWELL AIR SEA DIR/SP/G HT/PER HT/PER (UTC) (F) (DEG/KT/KT) (MB) (FT/S) (FT/S) CHESAPEAKE LIGHT 0700 71 100/ 9/ 10 1019.9 BUOY 44014 0700 72 75 60/ 10/ 14 1018.6 4/11 3/11 DUCK 0700 72 75 80/ 12/ 14 1018.1 2E DUCK 0700 N/A 3/12 2/12 OREGON INLET 0700 71 73 50/ 9/ 12 1018.2 BUOY 44095 0700 76 N/A 4/ 8 2/13 20E OREGON INLET NOT AVBL HATTERAS CG 0700 72 76 40/ 9/ 13 1018.3 DIAMOND BUOY 0700 74 20/ 14/ 19 1017.2 4/ 7 3/ 9 CAPE LOOKOUT 0700 75 60/ 15/ 16 1017.3 BEAUFORT LAB 0700 67 78 30/ 5/ 7 1017.2 30 SE NEW RIVER 0700 78 83 70/ 16/ 19 1017.1 4/ 5 2/ 9 5 SE WRIGHTSVILL 0700 75 81 70/ 14/ 16 N/A BUOY 41002 0641 78 82 80/ 14/ 16 1015.4 4/11 2/11 BUOY 41004 0700 81 83 100/ 6/ 8 1014.7 3/ 6 3/ 6 $$

USA.gov is the U.S. government's official web portal to all federal, state and local government web resources and services.